Погода в Кругликове

Россия / Хабаровский край     48°06′17″N   135°07′20″E
В апреле 2022 года жителям России запретили посещать сайт meteo.paraplan.net по решению Генеральной прокуратуры. Аудитория сайта уменьшилась в 10 раз. Владельцы сайта не видят смысла в поддержке погодного сервера в таких условиях. Сайт будет закрыт в октябре.
темп.,
°C
ветер,
м/с
пор.,
м/с
влажн.,
%
обл.,
%
осадки,
мм/ч
давл.,
гПа
погр.,
м
25 сентября, вс
вс2501:00+9з38973 0.1 1007161
04:00+9юз479818 0.1 1009172
07:00+7юз359710 0.0 1012110
10:00+12юз45834 0.0 1013378
13:00+16юз4664100 0.0 1013838
16:00+18юз3665100 0.0 10121021
19:00+14ю237997 0.0 101219
22:00+11ю2387100 0.0 101335
26 сентября, пн
пн2601:00+10ююв34890 0.0 101258
04:00+10ююв34895 0.0 101175
07:00+9ю349058 0.0 101171
10:00+14юз41179100 0.1 1012622
13:00+18юз797197 0.1 10121221
16:00+18з710670 0.2 10121497
19:00+11з34690 0.0 101451
22:00+8з35672 0.0 101563
27 сентября, вт
вт2701:00+7зюз337265 0.0 101652
04:00+6зюз33737 0.0 101752
07:00+5зюз34800 0.0 101870
10:00+11юз34643 0.0 1018415
13:00+15юз46554 0.0 1016908
16:00+17юз47530 0.0 10131146
19:00+13ю34760 0.0 101349
22:00+11ю37810 0.0 101198
28 сентября, ср
ср2801:00+11ю38892 0.0 1010127
04:00+11ю34920 0.0 100868
07:00+10ю34922 0.0 100758
10:00+17ююз513715 0.0 1006582
13:00+20юз8116492 0.0 10061090
16:00+21з6116895 0.0 10051370
19:00+17зсз487996 0.0 1007254
22:00+12сз35857 0.0 100977
29 сентября, чт
чт2901:00+9зсз2261100 0.0 101027
04:00+8з3362100 0.0 101153
07:00+7з226636 0.0 101327
10:00+12юв11578 0.0 1013306
13:00+16юз2245100 0.0 1012565
16:00+15ююв136194 0.0 1010232
19:00+13вюв2264100 0.0 100924
22:00+13в3383100 0.1 100737